Year,Month,Day,Hour,Minute,Value (Times are PST for temperature in C)
2015,04,18,09,57,13.30
2015,04,18,09,58,13.30
2015,04,18,09,59,13.40
2015,04,18,10,00,13.50
2015,04,18,10,01,13.60
2015,04,18,10,02,13.60
2015,04,18,10,03,13.60
2015,04,18,10,04,13.60
2015,04,18,10,05,13.60
2015,04,18,10,06,13.60
2015,04,18,10,07,13.60
2015,04,18,10,08,13.70
2015,04,18,10,09,13.70
2015,04,18,10,10,13.80
2015,04,18,10,11,13.80
2015,04,18,10,12,13.90
2015,04,18,10,13,13.90
2015,04,18,10,14,14.00
2015,04,18,10,15,14.10
2015,04,18,10,16,14.20
2015,04,18,10,17,14.20
2015,04,18,10,18,14.20
2015,04,18,10,19,14.20
2015,04,18,10,20,14.20
2015,04,18,10,21,14.20
2015,04,18,10,22,14.20
2015,04,18,10,23,14.20
2015,04,18,10,24,14.20
2015,04,18,10,25,14.20
2015,04,18,10,26,14.20
2015,04,18,10,27,14.20
2015,04,18,10,28,14.30
2015,04,18,10,29,14.30
2015,04,18,10,30,14.30
2015,04,18,10,31,14.30
2015,04,18,10,32,14.30
2015,04,18,10,33,14.30
2015,04,18,10,34,14.30
2015,04,18,10,35,14.30
2015,04,18,10,36,14.40
2015,04,18,10,37,14.40
2015,04,18,10,38,14.50
2015,04,18,10,39,14.60
2015,04,18,10,40,14.70
2015,04,18,10,41,14.80
2015,04,18,10,42,14.90
2015,04,18,10,43,14.90
2015,04,18,10,44,15.00
2015,04,18,10,45,15.10
2015,04,18,10,46,15.10
2015,04,18,10,47,15.00
2015,04,18,10,48,14.90
2015,04,18,10,49,14.90
2015,04,18,10,50,14.90
2015,04,18,10,51,15.00
2015,04,18,10,52,15.00
2015,04,18,10,53,15.10
2015,04,18,10,54,15.20
2015,04,18,10,55,15.20
2015,04,18,10,56,15.20
2015,04,18,10,57,15.30
2015,04,18,10,58,15.30
2015,04,18,10,59,15.30
2015,04,18,11,00,15.30
2015,04,18,11,01,15.20
2015,04,18,11,02,15.20
2015,04,18,11,03,15.20
2015,04,18,11,04,15.20
2015,04,18,11,05,15.20
2015,04,18,11,06,15.10
2015,04,18,11,07,15.10
2015,04,18,11,08,15.10
2015,04,18,11,09,15.10
2015,04,18,11,10,15.10
2015,04,18,11,11,15.10
2015,04,18,11,12,15.10
2015,04,18,11,13,15.20
2015,04,18,11,14,15.10
2015,04,18,11,15,15.10
2015,04,18,11,16,15.00
2015,04,18,11,17,14.90
2015,04,18,11,18,14.80
2015,04,18,11,19,14.80
2015,04,18,11,20,14.80
2015,04,18,11,21,14.90
2015,04,18,11,22,15.00
2015,04,18,11,23,15.00
2015,04,18,11,24,15.00
2015,04,18,11,25,15.00
2015,04,18,11,26,15.00
2015,04,18,11,27,15.10
2015,04,18,11,28,15.10
2015,04,18,11,29,15.10
2015,04,18,11,30,15.20
2015,04,18,11,31,15.30
2015,04,18,11,32,15.30
2015,04,18,11,33,15.30
2015,04,18,11,34,15.30
2015,04,18,11,35,15.30
2015,04,18,11,36,15.40
2015,04,18,11,37,15.50
2015,04,18,11,38,15.50
2015,04,18,11,39,15.50
2015,04,18,11,40,15.50
2015,04,18,11,41,15.50
2015,04,18,11,42,15.60
2015,04,18,11,43,15.60
2015,04,18,11,44,15.60
2015,04,18,11,45,15.60
2015,04,18,11,46,15.60
2015,04,18,11,47,15.50
2015,04,18,11,48,15.50
2015,04,18,11,49,15.50
2015,04,18,11,50,15.50
2015,04,18,11,51,15.60
2015,04,18,11,52,15.70
2015,04,18,11,53,15.70
2015,04,18,11,54,15.80
2015,04,18,11,55,15.80
2015,04,18,11,56,15.80
2015,04,18,11,57,15.70
2015,04,18,11,58,15.60
2015,04,18,11,59,15.40
2015,04,18,12,00,15.30
2015,04,18,12,01,15.30
2015,04,18,12,02,15.40
2015,04,18,12,03,15.40
2015,04,18,12,04,15.50
2015,04,18,12,05,15.60
2015,04,18,12,06,15.70
2015,04,18,12,07,15.70
2015,04,18,12,08,15.80
2015,04,18,12,09,15.80
2015,04,18,12,10,15.80
2015,04,18,12,11,15.70
2015,04,18,12,12,15.70
2015,04,18,12,13,15.60
2015,04,18,12,14,15.60
2015,04,18,12,15,15.50
2015,04,18,12,16,15.50
2015,04,18,12,17,15.40
2015,04,18,12,18,15.30
2015,04,18,12,19,15.30
2015,04,18,12,20,15.30
2015,04,18,12,21,15.40
2015,04,18,12,22,15.40
2015,04,18,12,23,15.50
2015,04,18,12,24,15.50
2015,04,18,12,25,15.50
2015,04,18,12,26,15.50
2015,04,18,12,27,15.60
2015,04,18,12,28,15.70
2015,04,18,12,29,15.70
2015,04,18,12,30,15.70
2015,04,18,12,31,15.70
2015,04,18,12,32,15.80
2015,04,18,12,33,15.80
2015,04,18,12,34,15.80
2015,04,18,12,35,15.80
2015,04,18,12,36,15.90
2015,04,18,12,37,15.90
2015,04,18,12,38,16.00
2015,04,18,12,39,16.10
2015,04,18,12,40,16.20
2015,04,18,12,41,16.30
2015,04,18,12,42,16.40
2015,04,18,12,43,16.50
2015,04,18,12,44,16.60
2015,04,18,12,45,16.70
2015,04,18,12,46,16.70
2015,04,18,12,47,16.70
2015,04,18,12,48,16.70
2015,04,18,12,49,16.70
2015,04,18,12,50,16.70
2015,04,18,12,51,16.70
2015,04,18,12,52,16.70
2015,04,18,12,53,16.70
2015,04,18,12,54,16.60
2015,04,18,12,55,16.60
2015,04,18,12,56,16.60
2015,04,18,12,57,16.60
2015,04,18,12,58,16.70
2015,04,18,12,59,16.80
2015,04,18,13,00,16.80
2015,04,18,13,01,16.70
2015,04,18,13,02,16.70
2015,04,18,13,03,16.70
2015,04,18,13,04,16.70
2015,04,18,13,05,16.70
2015,04,18,13,06,16.70
2015,04,18,13,07,16.80
2015,04,18,13,08,16.80
2015,04,18,13,09,16.90
2015,04,18,13,10,17.10
2015,04,18,13,11,17.20
2015,04,18,13,12,17.10
2015,04,18,13,13,17.00
2015,04,18,13,14,16.90
2015,04,18,13,15,16.90
2015,04,18,13,16,16.90
2015,04,18,13,17,16.80
2015,04,18,13,18,16.80
2015,04,18,13,19,16.80
2015,04,18,13,20,16.80
2015,04,18,13,21,16.90
2015,04,18,13,22,16.90
2015,04,18,13,23,16.90
2015,04,18,13,24,16.90
2015,04,18,13,25,16.90
2015,04,18,13,26,17.00
2015,04,18,13,27,17.00
2015,04,18,13,28,17.20
2015,04,18,13,29,17.30
2015,04,18,13,30,17.40
2015,04,18,13,31,17.50
2015,04,18,13,32,17.50
2015,04,18,13,33,17.50
2015,04,18,13,34,17.40
2015,04,18,13,35,17.40
2015,04,18,13,36,17.40
2015,04,18,13,37,17.40
2015,04,18,13,38,17.40
2015,04,18,13,39,17.30
2015,04,18,13,40,17.40
2015,04,18,13,41,17.40
2015,04,18,13,42,17.40
2015,04,18,13,43,17.40
2015,04,18,13,44,17.40
2015,04,18,13,45,17.30
2015,04,18,13,46,17.30
2015,04,18,13,47,17.20
2015,04,18,13,48,17.10
2015,04,18,13,49,17.10
2015,04,18,13,50,17.00
2015,04,18,13,51,17.00
2015,04,18,13,52,17.10
2015,04,18,13,53,17.10
2015,04,18,13,54,17.10
2015,04,18,13,55,17.10
2015,04,18,13,56,17.00
2015,04,18,13,57,16.90
2015,04,18,13,58,16.70
2015,04,18,13,59,16.60
2015,04,18,14,00,16.60
2015,04,18,14,01,16.60
2015,04,18,14,02,16.60
2015,04,18,14,03,16.60
2015,04,18,14,04,16.70
2015,04,18,14,05,16.80
2015,04,18,14,06,16.90
2015,04,18,14,07,17.00
2015,04,18,14,08,17.10
2015,04,18,14,09,17.20
2015,04,18,14,10,17.30
2015,04,18,14,11,17.40
2015,04,18,14,12,17.50
2015,04,18,14,13,17.40
2015,04,18,14,14,17.40
2015,04,18,14,15,17.40
2015,04,18,14,16,17.40
2015,04,18,14,17,17.40
2015,04,18,14,18,17.40
2015,04,18,14,19,17.30
2015,04,18,14,20,17.20
2015,04,18,14,21,17.20
2015,04,18,14,22,17.20
2015,04,18,14,23,17.20
2015,04,18,14,24,17.20
2015,04,18,14,25,17.20
2015,04,18,14,26,17.20
2015,04,18,14,27,17.20
2015,04,18,14,28,17.30
2015,04,18,14,29,17.40
2015,04,18,14,30,17.40
2015,04,18,14,31,17.50
2015,04,18,14,32,17.50
2015,04,18,14,33,17.60
2015,04,18,14,34,17.60
2015,04,18,14,35,17.60
2015,04,18,14,36,17.60
2015,04,18,14,37,17.60
2015,04,18,14,38,17.60
2015,04,18,14,39,17.60
2015,04,18,14,40,17.60
2015,04,18,14,41,17.60
2015,04,18,14,42,17.50
2015,04,18,14,43,17.50
2015,04,18,14,44,17.60
2015,04,18,14,45,17.70
2015,04,18,14,46,17.80
2015,04,18,14,47,17.90
2015,04,18,14,48,17.90
2015,04,18,14,49,17.80
2015,04,18,14,50,17.80
2015,04,18,14,51,17.80
2015,04,18,14,52,17.80
2015,04,18,14,53,17.80
2015,04,18,14,54,17.70
2015,04,18,14,55,17.70
2015,04,18,14,56,17.70
2015,04,18,14,57,17.70
2015,04,18,14,58,17.60
2015,04,18,14,59,17.60
2015,04,18,15,00,17.60
2015,04,18,15,01,17.60
2015,04,18,15,02,17.60
2015,04,18,15,03,17.50
2015,04,18,15,04,17.50
2015,04,18,15,05,17.50
2015,04,18,15,06,17.50
2015,04,18,15,07,17.50
2015,04,18,15,08,17.60
2015,04,18,15,09,17.70
2015,04,18,15,10,17.70
2015,04,18,15,11,17.70
2015,04,18,15,12,17.80
2015,04,18,15,13,17.80
2015,04,18,15,14,17.80
2015,04,18,15,15,17.90
2015,04,18,15,16,18.10
2015,04,18,15,17,18.20
2015,04,18,15,18,18.30
2015,04,18,15,19,18.30
2015,04,18,15,20,18.40
2015,04,18,15,21,18.40
2015,04,18,15,22,18.40
2015,04,18,15,23,18.40
2015,04,18,15,24,18.30
2015,04,18,15,25,18.30
2015,04,18,15,26,18.30
2015,04,18,15,27,18.20
2015,04,18,15,28,18.20
2015,04,18,15,29,18.40
2015,04,18,15,30,18.40
2015,04,18,15,31,18.40
2015,04,18,15,32,18.30
2015,04,18,15,33,18.30
2015,04,18,15,34,18.20
2015,04,18,15,35,18.10
2015,04,18,15,36,18.10
2015,04,18,15,37,18.00
2015,04,18,15,38,17.90
2015,04,18,15,39,17.90
2015,04,18,15,40,17.90
2015,04,18,15,41,17.80
2015,04,18,15,42,17.80
2015,04,18,15,43,17.70
2015,04,18,15,44,17.70
2015,04,18,15,45,17.70
2015,04,18,15,46,17.70
2015,04,18,15,47,17.70
2015,04,18,15,48,17.70
2015,04,18,15,49,17.70
2015,04,18,15,50,17.70
2015,04,18,15,51,17.80
2015,04,18,15,52,17.80
2015,04,18,15,53,17.80
2015,04,18,15,54,17.80
2015,04,18,15,55,17.80
2015,04,18,15,56,17.80
2015,04,18,15,57,17.80
2015,04,18,15,58,17.80
2015,04,18,15,59,17.80
2015,04,18,16,00,17.70
2015,04,18,16,01,17.70
2015,04,18,16,02,17.70
2015,04,18,16,03,17.80
2015,04,18,16,04,17.80
2015,04,18,16,05,17.80
2015,04,18,16,06,17.80
2015,04,18,16,07,17.90
2015,04,18,16,08,18.00
2015,04,18,16,09,17.90
2015,04,18,16,10,17.90
2015,04,18,16,11,17.90
2015,04,18,16,12,17.80
2015,04,18,16,13,17.80
2015,04,18,16,14,17.80
2015,04,18,16,15,17.80
2015,04,18,16,16,17.90
2015,04,18,16,17,17.90
2015,04,18,16,18,17.90
2015,04,18,16,19,18.00
2015,04,18,16,20,18.10
2015,04,18,16,21,18.10
2015,04,18,16,22,18.20
2015,04,18,16,23,18.20
2015,04,18,16,24,18.20
2015,04,18,16,25,18.20
2015,04,18,16,26,18.10
2015,04,18,16,27,18.10
2015,04,18,16,28,18.10
2015,04,18,16,29,18.10
2015,04,18,16,30,18.10
2015,04,18,16,31,18.10
2015,04,18,16,32,18.10
2015,04,18,16,33,18.00
2015,04,18,16,34,17.90
2015,04,18,16,35,17.80
2015,04,18,16,36,17.70
2015,04,18,16,37,17.60
2015,04,18,16,38,17.50
2015,04,18,16,39,17.40
2015,04,18,16,40,17.40
2015,04,18,16,41,17.30
2015,04,18,16,42,17.30
2015,04,18,16,43,17.20
2015,04,18,16,44,17.20
2015,04,18,16,45,17.10
2015,04,18,16,46,17.10
2015,04,18,16,47,17.10
2015,04,18,16,48,17.00
2015,04,18,16,49,17.00
2015,04,18,16,50,16.90
2015,04,18,16,51,16.80
2015,04,18,16,52,16.80
2015,04,18,16,53,16.80
2015,04,18,16,54,16.80
2015,04,18,16,55,16.70
2015,04,18,16,56,16.70
2015,04,18,16,57,16.80
2015,04,18,16,58,16.80
2015,04,18,16,59,16.80
2015,04,18,17,00,16.70
2015,04,18,17,01,16.70
2015,04,18,17,02,16.70
2015,04,18,17,03,16.60
2015,04,18,17,04,16.70
2015,04,18,17,05,16.70
2015,04,18,17,06,16.60
2015,04,18,17,07,16.60
2015,04,18,17,08,16.60
2015,04,18,17,09,16.50
2015,04,18,17,10,16.50
2015,04,18,17,11,16.40
2015,04,18,17,12,16.40
2015,04,18,17,13,16.40
2015,04,18,17,14,16.40
2015,04,18,17,15,16.40
2015,04,18,17,16,16.40
2015,04,18,17,17,16.40
2015,04,18,17,18,16.40
2015,04,18,17,19,16.40
2015,04,18,17,20,16.40
2015,04,18,17,21,16.40
2015,04,18,17,22,16.40
2015,04,18,17,23,16.30
2015,04,18,17,24,16.30
2015,04,18,17,25,16.30
2015,04,18,17,26,16.30
2015,04,18,17,27,16.30
2015,04,18,17,28,16.30
2015,04,18,17,29,16.30
2015,04,18,17,30,16.30
2015,04,18,17,31,16.20
2015,04,18,17,32,16.20
2015,04,18,17,33,16.20
2015,04,18,17,34,16.20
2015,04,18,17,35,16.20
2015,04,18,17,36,16.30
2015,04,18,17,37,16.30
2015,04,18,17,38,16.40
2015,04,18,17,39,16.40
2015,04,18,17,40,16.50
2015,04,18,17,41,16.50
2015,04,18,17,42,16.50
2015,04,18,17,43,16.60
2015,04,18,17,44,16.50
2015,04,18,17,45,16.50
2015,04,18,17,46,16.60
2015,04,18,17,47,16.60
2015,04,18,17,48,16.60
2015,04,18,17,49,16.60
2015,04,18,17,50,16.50
2015,04,18,17,51,16.40
2015,04,18,17,52,16.40
2015,04,18,17,53,16.30
2015,04,18,17,54,16.20
2015,04,18,17,55,16.20
2015,04,18,17,56,16.10
2015,04,18,17,57,16.10
2015,04,18,17,58,16.10
2015,04,18,17,59,16.10
2015,04,18,18,00,16.10
2015,04,18,18,01,16.10
2015,04,18,18,02,16.10
2015,04,18,18,03,16.20
2015,04,18,18,04,16.30
2015,04,18,18,05,16.30
2015,04,18,18,06,16.30
2015,04,18,18,07,16.30
2015,04,18,18,08,16.30
2015,04,18,18,09,16.30
2015,04,18,18,10,16.20
2015,04,18,18,11,16.20
2015,04,18,18,12,16.10
2015,04,18,18,13,16.10
2015,04,18,18,14,16.00
2015,04,18,18,15,15.90
2015,04,18,18,16,15.90
2015,04,18,18,17,15.80
2015,04,18,18,18,15.80
2015,04,18,18,19,15.80
2015,04,18,18,20,15.80
2015,04,18,18,21,15.80
2015,04,18,18,22,15.80
2015,04,18,18,23,15.80
2015,04,18,18,24,15.80
2015,04,18,18,25,15.80
2015,04,18,18,26,15.80
2015,04,18,18,27,15.80
2015,04,18,18,28,15.80
2015,04,18,18,29,15.80
2015,04,18,18,30,15.80
2015,04,18,18,31,15.80
2015,04,18,18,32,15.80
2015,04,18,18,33,15.80
2015,04,18,18,34,15.80
2015,04,18,18,35,15.90
2015,04,18,18,36,15.90
2015,04,18,18,37,15.90
2015,04,18,18,38,15.90
2015,04,18,18,39,15.90
2015,04,18,18,40,15.90
2015,04,18,18,41,16.00
2015,04,18,18,42,16.00
2015,04,18,18,43,16.00
2015,04,18,18,44,16.00
2015,04,18,18,45,16.00
2015,04,18,18,46,16.00
2015,04,18,18,47,15.90
2015,04,18,18,48,15.90
2015,04,18,18,49,15.90
2015,04,18,18,50,15.80
2015,04,18,18,51,15.80
2015,04,18,18,52,15.80
2015,04,18,18,53,15.80
2015,04,18,18,54,15.80
2015,04,18,18,55,15.70
2015,04,18,18,56,15.70
2015,04,18,18,57,15.60
2015,04,18,18,58,15.60
2015,04,18,18,59,15.50
2015,04,18,19,00,15.50
2015,04,18,19,01,15.40
2015,04,18,19,02,15.40
2015,04,18,19,03,15.40
2015,04,18,19,04,15.40
2015,04,18,19,05,15.30
2015,04,18,19,06,15.30
2015,04,18,19,07,15.30
2015,04,18,19,08,15.30
2015,04,18,19,09,15.20
2015,04,18,19,10,15.20
2015,04,18,19,11,15.10
2015,04,18,19,12,15.10
2015,04,18,19,13,15.00
2015,04,18,19,14,14.90
2015,04,18,19,15,14.90
2015,04,18,19,16,14.80
2015,04,18,19,17,14.80
2015,04,18,19,18,14.70
2015,04,18,19,19,14.60
2015,04,18,19,20,14.60
2015,04,18,19,21,14.50
2015,04,18,19,22,14.50
2015,04,18,19,23,14.40
2015,04,18,19,24,14.40
2015,04,18,19,25,14.30
2015,04,18,19,26,14.20
2015,04,18,19,27,14.20
2015,04,18,19,28,14.10
2015,04,18,19,29,14.10
2015,04,18,19,30,14.10
2015,04,18,19,31,14.00
2015,04,18,19,32,14.00
2015,04,18,19,33,14.00
2015,04,18,19,34,13.90
2015,04,18,19,35,13.90
2015,04,18,19,36,13.90
2015,04,18,19,37,13.90
2015,04,18,19,38,13.90
2015,04,18,19,39,13.80
2015,04,18,19,40,13.80
2015,04,18,19,41,13.80
2015,04,18,19,42,13.80
2015,04,18,19,43,13.70
2015,04,18,19,44,13.70
2015,04,18,19,45,13.60
2015,04,18,19,46,13.60
2015,04,18,19,47,13.60
2015,04,18,19,48,13.60
2015,04,18,19,49,13.60
2015,04,18,19,50,13.60
2015,04,18,19,51,13.60
2015,04,18,19,52,13.60
2015,04,18,19,53,13.60
2015,04,18,19,54,13.60
2015,04,18,19,55,13.60
